Location: ??????????
(48.4699°N, 37.9573°E)
Time: 20:55:17
(UTC+00:00)

BREEZE-M DEB (TANK) - Pass Details

Date: 20 January 2021
Orbit: 325 x 13917 km, 49.6° (Epoch: 01 March)

Event Time Altitude Azimuth Distance (km) Brightness Sun altitude
Rises 15:11:06 0° 291° (WNW) 4,126 8.1 -10.3°
Reaches altitude 10° 15:15:08 10° 282° (WNW) 2,178 6.9 -11.0°
Maximum altitude 15:18:42 28° 220° (SW) 818 4.4 -11.5°
Drops below altitude 10° 15:20:50 10° 155° (SSE) 1,279 4.6 -11.9°
Enters shadow 15:22:22 - 142° (SE) 1,988 5.5 -12.1°
